Regional Weather Roundup
Issued by NWS

Home | Current Version | Previous Version | Graphics & Text | Print | Product List | Glossary On
Versions: 1 2 3 4 5 6 7 8 9 10 11 12 13 14 15 16 17 18 19 20 21 22 23 24 25 26 27 28 29 30 31 32 33 34 35 36 37 38 39 40 41 42 43 44 45 46 47 48 49 50
000
ASUS43 KFSD 081202
RWRSD

WEATHER ROUNDUP FOR SOUTH DAKOTA
NATIONAL WEATHER SERVICE SIOUX FALLS SD
600 AM CST MON FEB 08 2016

NOTE: "FAIR" INDICATES FEW OR NO CLOUDS BELOW 12,000 FEET WITH NO
SIGNIFICANT WEATHER AND/OR OBSTRUCTIONS TO VISIBILITY.


SDZ001>005-009-010-012>017-081300-
NORTHWEST AND NORTH CENTRAL SOUTH DAKOTA

CITY           SKY/WX    TMP DP  RH WIND       PRES   REMARKS
BUFFALO          N/A     20  12  71 W10       30.27R WCI   9
FAITH            N/A     22  13  68 NW21      30.29S WCI   6
MOBRIDGE       CLEAR     27  17  66 NW24G31   30.19R WCI  12
$$

SDZ012>016-024>037-041>051-057-063-072>074-081300-
SOUTHWEST AND SOUTH CENTRAL SOUTH DAKOTA

CITY           SKY/WX    TMP DP  RH WIND       PRES   REMARKS
RAPID CTY ARPT CLOUDY    28   9  44 NW25G33   30.30F WCI  13
PIERRE         CLEAR     27  17  66 NW28G33   30.23R WCI  11
CUSTER         CLOUDY    22  -6  29 NW21G37   30.22S WCI   6
ELLSWORTH AFB  CLOUDY    28   9  43 NW25      30.30S WCI  14
PHILIP         CLEAR     23  15  71 NW9       30.33R WCI  13
PINE RIDGE     CLOUDY    20  10  65 NW6       30.34R WCI  12
WINNER         FAIR      25  16  68 NW22      30.22R WCI  10
$$

SDZ004>011-016>023-039-040-081300-
NORTHEAST SOUTH DAKOTA

CITY           SKY/WX    TMP DP  RH WIND       PRES   REMARKS
ABERDEEN       CLOUDY    24  16  71 N18G30    30.14R WCI  10
WATERTOWN      FLURRIES  18  10  71 N26G35    30.03R WCI  -1
BROOKINGS      FLURRIES  17  12  80 N28G35    30.00R WCI  -2
SISSETON         N/A     16  12  84 N30G36    30.08R WCI  -4
$$

SDZ017-020-022-023-036>040-048>070-081300-
SOUTHEAST SOUTH DAKOTA

CITY           SKY/WX    TMP DP  RH WIND       PRES   REMARKS
SIOUX FALLS    LGT SNOW  22  15  75 N32G41    30.03R BLWGSNOWWCI   3
HURON          CLOUDY    25  17  72 N25G32    30.12R WCI   9
CHAMBERLAIN    CLEAR     25  18  74 NW22G28   30.19R WCI  10
MITCHELL       CLOUDY    27  17  66 N29G41    30.13R WCI  11
YANKTON        MOCLDY    27  16  63 NW29G37   30.08R WCI  11
$$

ABBREVIATIONS USED IN REMARKS
   TC - TEMPERATURE IN CELSIUS
  WCI - WIND CHILL INDEX
   HX - HEAT INDEX
  VSB - VISIBILITY




USA.gov is the U.S. government's official web portal to all federal, state and local government web resources and services.